TimeFJST,TemperatureF,Dew PointF,Humidity,Sea Level PressureIn,VisibilityMPH,Wind Direction,Wind SpeedMPH,Gust SpeedMPH,PrecipitationIn,Events,Conditions,WindDirDegrees,DateUTC
12:00 AM,75.2,69.8,83,29.89,28.0,Calm,Calm,-,N/A,,Partly Cloudy,0,2012-10-28 11:00:00
1:00 AM,74,70,84,29.90,12,Calm,Calm,,,,Partly Cloudy,,2012-10-28 12:00:00
1:00 AM,73.4,69.8,88,29.89,28.0,Calm,Calm,-,N/A,,Scattered Clouds,0,2012-10-28 12:00:00
2:00 AM,71.6,69.8,94,29.86,28.0,Calm,Calm,-,N/A,,Scattered Clouds,0,2012-10-28 13:00:00
3:00 AM,71.6,69.8,94,29.83,28.0,Calm,Calm,-,N/A,,Scattered Clouds,0,2012-10-28 14:00:00
4:00 AM,71,68,87,29.85,12,Calm,Calm,,,,Partly Cloudy,,2012-10-28 15:00:00
4:00 AM,69.8,68.0,94,29.83,28.0,Calm,Calm,-,N/A,,Scattered Clouds,0,2012-10-28 15:00:00
5:00 AM,69.8,68.0,94,29.83,28.0,Calm,Calm,-,N/A,,Scattered Clouds,0,2012-10-28 16:00:00
6:00 AM,69.8,68.0,94,29.83,31.1,Calm,Calm,-,N/A,,Partly Cloudy,0,2012-10-28 17:00:00
7:00 AM,70,67,87,29.86,31,ESE,5.8,,,,Partly Cloudy,110,2012-10-28 18:00:00
7:00 AM,69.8,66.2,88,29.86,31.1,ESE,5.8,-,N/A,,Mostly Cloudy,110,2012-10-28 18:00:00
8:00 AM,73.4,68.0,83,29.89,31.1,South,5.8,-,N/A,,Scattered Clouds,170,2012-10-28 19:00:00
9:00 AM,78.8,69.8,74,29.89,28.0,Calm,Calm,-,N/A,,Scattered Clouds,0,2012-10-28 20:00:00
10:00 AM,81,69,60,29.91,12,Calm,Calm,,,,Partly Cloudy,,2012-10-28 21:00:00
10:00 AM,80.6,69.8,70,29.89,28.0,Calm,Calm,-,N/A,,Scattered Clouds,0,2012-10-28 21:00:00
11:00 AM,82.4,68.0,62,29.89,28.0,West,5.8,-,N/A,,Scattered Clouds,270,2012-10-28 22:00:00
12:00 PM,84.2,71.6,66,29.86,28.0,WNW,6.9,-,N/A,,Mostly Cloudy,300,2012-10-28 23:00:00
1:00 PM,84,70,54,29.87,12,West,10.4,,,,Partly Cloudy,270,2012-10-29 00:00:00
1:00 PM,84.2,69.8,62,29.86,28.0,West,10.4,-,N/A,,Mostly Cloudy,270,2012-10-29 00:00:00
2:00 PM,84.2,71.6,66,29.83,18.6,West,9.2,-,N/A,,Mostly Cloudy,270,2012-10-29 01:00:00
3:00 PM,84.2,71.6,66,29.80,18.6,West,11.5,-,N/A,,Mostly Cloudy,280,2012-10-29 02:00:00
4:00 PM,86,73,58,29.80,12,West,10.4,,,,Haze,270,2012-10-29 03:00:00
4:00 PM,86.0,73.4,66,29.80,18.6,West,10.4,-,N/A,,Mostly Cloudy,270,2012-10-29 03:00:00
5:00 PM,86.0,71.6,62,29.77,18.6,West,8.1,-,N/A,,Mostly Cloudy,260,2012-10-29 04:00:00
6:00 PM,86.0,71.6,62,29.77,21.8,SSW,5.8,-,N/A,,Scattered Clouds,210,2012-10-29 05:00:00
7:00 PM,82,73,68,29.81,12,SSW,6.9,,,,Partly Cloudy,210,2012-10-29 06:00:00
7:00 PM,82.4,73.4,74,29.80,21.8,SSW,6.9,-,N/A,,Scattered Clouds,210,2012-10-29 06:00:00
8:00 PM,78.8,71.6,78,29.83,24.9,SSW,8.1,-,N/A,,Partly Cloudy,210,2012-10-29 07:00:00
9:00 PM,77.0,71.6,83,29.83,24.9,SSW,6.9,-,N/A,,Partly Cloudy,200,2012-10-29 08:00:00
10:00 PM,76,71,79,29.86,12,South,6.9,,,,Partly Cloudy,170,2012-10-29 09:00:00
10:00 PM,77.0,71.6,83,29.86,24.9,South,6.9,-,N/A,,Partly Cloudy,170,2012-10-29 09:00:00
11:00 PM,75.2,71.6,89,29.86,24.9,SE,3.5,-,N/A,,Scattered Clouds,130,2012-10-29 10:00:00